Total_Precipitation_Accumulation
0.00 0.00 0.00 0.00 0.00 0.00 0.01 0.03 0.09 0.18 0.19 0.16 0.20 0.24 0.23 0.26 0.39 0.80 0.44 0.23 0.11 0.04 0.03 0.03 0.04 0.05 0.07 0.05 0.04 0.06 0.09 0.13 0.14 0.14 0.12 0.10 0.10 0.10 0.11 0.12 0.15 0.21 0.25 0.24 0.22 0.22 0.22 0.22 0.17
0.00 0.00 0.00 0.00 0.00 0.00 0.02 0.04 0.09 0.14 0.17 0.18 0.22 0.22 0.21 0.19 0.13 0.12 0.12 0.12 0.09 0.05 0.04 0.03 0.03 0.05 0.07 0.07 0.08 0.08 0.11 0.14 0.18 0.19 0.17 0.14 0.12 0.11 0.12 0.13 0.15 0.21 0.24 0.21 0.18 0.15 0.14 0.12 0.09
0.00 0.00 0.00 0.00 0.00 0.00 0.04 0.07 0.09 0.12 0.16 0.19 0.25 0.26 0.29 0.25 0.14 0.12 0.12 0.11 0.08 0.06 0.04 0.03 0.03 0.05 0.08 0.09 0.10 0.12 0.15 0.19 0.22 0.25 0.25 0.20 0.13 0.12 0.15 0.17 0.17 0.19 0.23 0.24 0.20 0.14 0.09 0.07 0.06
0.00 0.00 0.00 0.00 0.00 0.00 0.03 0.06 0.06 0.11 0.16 0.18 0.18 0.25 0.26 0.23 0.17 0.13 0.12 0.11 0.07 0.06 0.06 0.04 0.05 0.05 0.08 0.10 0.12 0.16 0.19 0.22 0.27 0.31 0.30 0.22 0.15 0.14 0.17 0.21 0.23 0.24 0.27 0.32 0.27 0.23 0.16 0.11 0.08
0.00 0.00 0.00 0.00 0.00 0.00 0.01 0.04 0.06 0.09 0.12 0.14 0.18 0.27 0.31 0.25 0.20 0.15 0.14 0.15 0.12 0.10 0.11 0.09 0.07 0.06 0.09 0.10 0.11 0.15 0.20 0.25 0.31 0.36 0.31 0.23 0.17 0.15 0.17 0.23 0.26 0.29 0.32 0.31 0.26 0.22 0.17 0.15 0.15
0.00 0.00 0.00 0.00 0.00 0.00 0.01 0.02 0.03 0.07 0.11 0.12 0.22 0.35 0.46 0.30 0.24 0.20 0.22 0.23 0.17 0.14 0.13 0.10 0.08 0.08 0.14 0.19 0.15 0.15 0.19 0.24 0.31 0.36 0.32 0.24 0.19 0.20 0.24 0.25 0.29 0.31 0.28 0.23 0.21 0.19 0.16 0.18 0.22
0.00 0.00 0.00 0.00 0.00 0.00 0.01 0.02 0.03 0.06 0.12 0.16 0.27 0.39 0.58 0.50 0.35 0.31 0.28 0.28 0.23 0.24 0.20 0.14 0.13 0.11 0.13 0.14 0.14 0.17 0.19 0.23 0.29 0.34 0.37 0.30 0.24 0.30 0.34 0.33 0.34 0.36 0.29 0.23 0.22 0.22 0.18 0.23 0.29
0.00 0.00 0.00 0.00 0.01 0.01 0.01 0.02 0.04 0.09 0.20 0.27 0.32 0.34 0.66 0.77 0.56 0.50 0.41 0.43 0.45 0.57 0.66 0.45 0.32 0.21 0.14 0.12 0.14 0.17 0.19 0.22 0.26 0.27 0.28 0.27 0.27 0.29 0.32 0.29 0.30 0.30 0.23 0.19 0.17 0.19 0.18 0.16 0.15
0.00 0.00 0.00 0.00 0.01 0.01 0.01 0.03 0.04 0.12 0.26 0.25 0.24 0.25 0.49 0.55 0.55 0.66 0.63 0.68 0.77 1.03 1.23 0.92 0.53 0.34 0.27 0.24 0.21 0.21 0.18 0.22 0.21 0.19 0.21 0.27 0.37 0.44 0.42 0.28 0.26 0.21 0.17 0.15 0.14 0.12 0.11 0.08 0.08
0.00 0.00 0.00 0.00 0.00 0.01 0.01 0.02 0.04 0.07 0.20 0.21 0.21 0.25 0.43 0.54 0.56 0.72 0.85 1.21 1.25 1.20 1.26 1.09 0.70 0.68 0.66 0.59 0.50 0.38 0.29 0.27 0.24 0.30 0.28 0.37 0.63 0.72 0.54 0.49 0.33 0.25 0.22 0.20 0.18 0.17 0.14 0.09 0.10
0.00 0.00 0.00 0.00 0.00 0.01 0.02 0.03 0.06 0.09 0.19 0.21 0.25 0.35 0.43 0.53 0.56 0.67 0.90 1.39 1.55 1.19 1.01 0.88 0.80 0.76 0.83 0.81 0.77 0.66 0.57 0.60 0.56 0.59 0.57 0.67 0.74 0.62 0.53 0.61 0.51 0.45 0.37 0.35 0.36 0.25 0.18 0.18 0.21
0.00 0.00 0.00 0.00 0.00 0.01 0.06 0.11 0.08 0.11 0.26 0.32 0.30 0.38 0.51 0.52 0.50 0.70 1.10 1.18 1.20 1.13 1.06 1.01 1.05 0.93 0.96 1.09 1.05 1.07 1.01 0.89 0.77 0.79 0.74 0.89 1.01 0.92 0.91 0.93 0.86 0.89 0.85 0.77 0.64 0.49 0.39 0.32 0.29
0.00 0.00 0.00 0.00 0.01 0.02 0.08 0.19 0.09 0.08 0.17 0.20 0.24 0.37 0.49 0.54 0.64 0.82 1.10 1.31 1.33 1.36 1.28 1.13 1.16 1.14 1.09 1.27 1.33 1.25 1.23 1.07 0.90 0.86 0.88 0.98 1.06 1.12 1.25 1.22 1.30 1.29 1.18 0.99 0.84 0.66 0.62 0.57 0.49
0.00 0.00 0.00 0.01 0.01 0.05 0.03 0.06 0.05 0.06 0.09 0.14 0.16 0.28 0.40 0.48 0.70 0.91 1.11 1.40 1.58 1.70 1.53 1.26 1.21 1.18 1.14 1.22 1.36 1.37 1.28 1.19 1.14 1.16 1.09 1.07 1.19 1.45 1.53 1.50 1.44 1.35 1.25 1.21 1.12 0.98 0.94 0.87 0.81
0.00 0.00 0.01 0.01 0.01 0.02 0.01 0.02 0.03 0.05 0.07 0.09 0.14 0.25 0.41 0.55 0.64 0.86 1.05 1.43 1.76 2.00 1.92 1.62 1.38 1.37 1.34 1.30 1.36 1.33 1.35 1.49 1.43 1.52 1.57 1.39 1.29 1.45 1.57 1.70 1.61 1.50 1.46 1.42 1.30 1.25 1.22 1.12 1.07
0.00 0.00 0.01 0.01 0.01 0.00 0.01 0.04 0.06 0.06 0.07 0.09 0.15 0.22 0.36 0.57 0.56 0.66 0.94 1.41 2.03 2.44 2.33 1.81 1.42 1.54 1.62 1.70 1.68 1.70 1.70 1.76 1.74 1.64 1.73 1.69 1.71 1.67 1.68 1.72 1.63 1.55 1.54 1.65 1.66 1.63 1.58 1.48 1.41
0.01 0.00 0.01 0.01 0.01 0.00 0.01 0.06 0.09 0.08 0.10 0.10 0.16 0.27 0.38 0.42 0.46 0.61 0.95 1.52 2.25 2.95 2.75 2.12 1.82 1.90 1.97 2.07 2.22 2.33 2.45 2.38 2.30 2.19 2.09 2.00 2.05 2.02 2.01 2.07 1.99 1.90 1.95 1.94 1.78 1.81 1.84 1.85 1.73
0.01 0.00 0.01 0.01 0.01 0.00 0.02 0.07 0.08 0.09 0.12 0.14 0.18 0.29 0.31 0.36 0.45 0.64 1.05 1.74 2.45 3.18 3.01 2.58 2.29 2.38 2.34 2.32 2.51 2.64 2.73 2.76 2.82 2.84 2.69 2.52 2.46 2.50 2.58 2.64 2.58 2.39 2.34 2.34 2.34 2.26 1.98 1.80 1.69
0.00 0.00 0.01 0.01 0.02 0.02 0.04 0.09 0.12 0.13 0.15 0.20 0.24 0.31 0.36 0.38 0.47 0.78 1.24 1.81 2.24 2.48 2.54 2.62 2.59 2.61 2.66 2.68 2.74 2.92 3.12 3.19 3.18 3.24 3.23 3.11 3.05 3.09 3.19 3.17 3.09 2.84 2.64 2.53 2.47 2.36 2.14 1.88 1.69
0.01 0.00 0.01 0.03 0.04 0.04 0.08 0.14 0.19 0.20 0.21 0.27 0.38 0.39 0.39 0.43 0.54 0.86 1.20 1.59 1.94 2.24 2.42 2.54 2.49 2.68 2.92 3.26 3.69 4.02 4.23 4.14 4.03 3.96 3.86 3.73 3.63 3.54 3.45 3.39 3.21 2.99 2.79 2.56 2.41 2.32 2.21 2.02 1.82
0.01 0.01 0.02 0.04 0.06 0.08 0.11 0.22 0.26 0.27 0.31 0.34 0.40 0.46 0.46 0.48 0.60 0.86 1.02 1.23 1.54 1.90 2.17 2.35 2.57 2.99 3.46 3.97 4.66 5.13 5.05 4.74 4.58 4.31 4.21 3.99 3.70 3.62 3.61 3.34 3.14 2.94 2.74 2.57 2.37 2.29 2.25 2.04 1.89
0.01 0.01 0.03 0.04 0.05 0.09 0.10 0.26 0.41 0.42 0.44 0.45 0.47 0.46 0.46 0.46 0.51 0.70 0.93 1.13 1.37 1.75 2.11 2.42 2.80 3.32 3.93 4.41 4.87 5.19 5.23 5.04 4.82 4.37 4.01 3.62 3.30 3.11 3.01 2.91 2.73 2.59 2.42 2.25 2.11 2.11 2.07 1.92 1.73
0.01 0.02 0.03 0.02 0.02 0.06 0.11 0.25 0.53 0.59 0.55 0.53 0.49 0.44 0.40 0.39 0.42 0.52 0.69 0.90 1.21 1.61 2.04 2.41 2.75 3.32 3.88 4.40 4.76 4.97 5.09 4.99 4.68 4.07 3.49 3.12 2.84 2.62 2.41 2.24 2.15 2.10 1.97 1.76 1.61 1.59 1.58 1.52 1.42
0.00 0.01 0.03 0.04 0.05 0.10 0.11 0.25 0.66 0.90 0.79 0.63 0.56 0.47 0.41 0.37 0.39 0.48 0.60 0.76 1.05 1.39 1.76 2.12 2.47 3.12 3.77 4.30 4.69 4.92 4.95 4.68 4.14 3.56 3.04 2.74 2.52 2.29 2.10 1.97 1.79 1.67 1.53 1.35 1.17 1.10 1.15 1.20 1.22
0.01 0.02 0.11 0.16 0.17 0.19 0.16 0.31 0.70 0.81 0.76 0.68 0.59 0.49 0.42 0.37 0.39 0.44 0.57 0.68 0.94 1.26 1.57 1.93 2.30 2.73 3.21 3.60 3.83 3.98 4.00 3.82 3.53 3.17 2.76 2.44 2.24 2.03 1.78 1.54 1.37 1.27 1.20 1.13 1.01 0.90 0.87 0.93 0.97
0.01 0.04 0.13 0.20 0.21 0.23 0.32 0.60 0.87 0.80 0.72 0.67 0.59 0.50 0.45 0.43 0.46 0.50 0.60 0.69 0.82 1.05 1.35 1.70 2.00 2.29 2.52 2.67 2.85 2.86 2.80 2.74 2.61 2.31 1.98 1.73 1.52 1.39 1.22 1.04 0.98 0.93 0.91 0.90 0.87 0.78 0.73 0.76 0.82
0.02 0.04 0.04 0.09 0.11 0.23 0.51 0.75 1.00 0.90 0.88 0.77 0.68 0.61 0.55 0.51 0.51 0.56 0.65 0.71 0.81 0.95 1.15 1.34 1.48 1.65 1.71 1.67 1.68 1.73 1.76 1.74 1.62 1.46 1.24 1.02 0.85 0.76 0.70 0.64 0.62 0.56 0.59 0.65 0.68 0.69 0.69 0.69 0.71
0.03 0.03 0.05 0.12 0.19 0.32 0.51 0.82 1.16 1.21 1.11 0.87 0.70 0.59 0.50 0.49 0.51 0.55 0.65 0.72 0.78 0.84 1.01 1.12 1.13 1.10 1.13 1.17 1.17 1.13 1.15 1.14 1.12 1.06 0.96 0.83 0.71 0.60 0.51 0.48 0.48 0.44 0.43 0.45 0.50 0.55 0.59 0.64 0.63
0.06 0.07 0.08 0.14 0.19 0.36 0.63 1.07 1.18 1.34 1.26 1.04 0.88 0.68 0.58 0.56 0.59 0.65 0.66 0.64 0.66 0.68 0.73 0.79 0.84 0.87 0.87 0.88 0.90 0.88 0.81 0.76 0.75 0.77 0.75 0.68 0.60 0.53 0.46 0.41 0.40 0.39 0.36 0.35 0.38 0.41 0.44 0.51 0.54
0.07 0.08 0.11 0.22 0.27 0.32 0.59 1.24 1.22 1.47 1.43 1.22 1.03 0.80 0.72 0.71 0.69 0.67 0.63 0.60 0.61 0.65 0.68 0.69 0.71 0.70 0.73 0.73 0.71 0.70 0.61 0.57 0.57 0.57 0.56 0.51 0.48 0.47 0.46 0.45 0.43 0.38 0.34 0.32 0.33 0.34 0.34 0.37 0.39